Time,TemperatureF,DewpointF,PressureIn,WindDirection,WindDirectionDegrees,WindSpeedMPH,WindSpeedGustMPH,Humidity,HourlyPrecipIn,Conditions,Clouds,dailyrainin,SoftwareType,DateUTC
2013-04-13 00:02:00,38.0,33.0,-100.00,WNW,285,15.0,21.0,80,-99.99,,,-99.99,,2013-04-13 05:02:00,
2013-04-13 00:12:00,38.0,33.0,-100.00,WNW,300,13.0,21.0,85,-99.99,,,-99.99,,2013-04-13 05:12:00,
2013-04-13 00:22:00,38.0,34.0,-100.00,WNW,295,14.0,16.0,86,-99.99,,,-99.99,,2013-04-13 05:22:00,
2013-04-13 00:32:00,38.0,34.0,-100.00,WNW,295,14.0,16.0,86,-99.99,,,-99.99,,2013-04-13 05:32:00,
2013-04-13 00:43:00,37.0,34.0,-100.00,WNW,290,19.0,24.0,86,-99.99,,,-99.99,,2013-04-13 05:43:00,
2013-04-13 00:53:00,37.0,33.0,-100.00,WNW,295,14.0,25.0,85,-99.99,,,-99.99,,2013-04-13 05:53:00,
2013-04-13 01:02:00,37.0,33.0,-100.00,WNW,295,14.0,25.0,85,-99.99,,,-99.99,,2013-04-13 06:02:00,
2013-04-13 01:12:00,37.0,33.0,-100.00,WNW,295,13.0,20.0,85,-99.99,,,-99.99,,2013-04-13 06:12:00,
2013-04-13 01:24:00,37.0,34.0,-100.00,WNW,295,11.0,18.0,87,-99.99,,,-99.99,,2013-04-13 06:24:00,
2013-04-13 01:34:00,37.0,34.0,-100.00,WNW,295,11.0,18.0,87,-99.99,,,-99.99,,2013-04-13 06:34:00,
2013-04-13 01:55:00,37.0,34.0,-100.00,WNW,290,11.0,16.0,87,-99.99,,,-99.99,,2013-04-13 06:55:00,
2013-04-13 02:05:00,37.0,34.0,-100.00,WNW,290,11.0,16.0,87,-99.99,,,-99.99,,2013-04-13 07:05:00,
2013-04-13 02:14:00,37.0,33.0,-100.00,WNW,290,14.0,16.0,87,-99.99,,,-99.99,,2013-04-13 07:14:00,
2013-04-13 02:24:00,37.0,34.0,-100.00,WNW,295,11.0,14.0,88,-99.99,,,-99.99,,2013-04-13 07:24:00,
2013-04-13 02:34:00,37.0,34.0,-100.00,WNW,295,11.0,14.0,88,-99.99,,,-99.99,,2013-04-13 07:34:00,
2013-04-13 02:44:00,36.0,33.0,-100.00,NW,305,15.0,23.0,88,-99.99,,,-99.99,,2013-04-13 07:44:00,
2013-04-13 02:56:00,36.0,32.0,-100.00,NW,305,14.0,19.0,88,-99.99,,,-99.99,,2013-04-13 07:56:00,
2013-04-13 03:06:00,36.0,32.0,-100.00,NW,305,14.0,19.0,88,-99.99,,,-99.99,,2013-04-13 08:06:00,
2013-04-13 03:15:00,36.0,33.0,-100.00,WNW,290,10.0,14.0,89,-99.99,,,-99.99,,2013-04-13 08:15:00,
2013-04-13 03:25:00,36.0,33.0,-100.00,WNW,285,8.0,11.0,89,-99.99,,,-99.99,,2013-04-13 08:25:00,
2013-04-13 03:34:00,36.0,33.0,-100.00,WNW,285,8.0,11.0,89,-99.99,,,-99.99,,2013-04-13 08:34:00,
2013-04-13 03:45:00,36.0,33.0,-100.00,West,280,17.0,19.0,89,-99.99,,,-99.99,,2013-04-13 08:45:00,
2013-04-13 03:54:00,36.0,31.0,-100.00,WNW,290,21.0,26.0,84,-99.99,,,-99.99,,2013-04-13 08:54:00,
2013-04-13 04:05:00,36.0,31.0,-100.00,WNW,290,21.0,26.0,84,-99.99,,,-99.99,,2013-04-13 09:05:00,
2013-04-13 04:14:00,36.0,31.0,-100.00,WNW,295,19.0,23.0,82,-99.99,,,-99.99,,2013-04-13 09:14:00,
2013-04-13 04:24:00,35.0,30.0,-100.00,WNW,295,21.0,26.0,82,-99.99,,,-99.99,,2013-04-13 09:24:00,
2013-04-13 04:36:00,35.0,30.0,-100.00,WNW,295,21.0,26.0,82,-99.99,,,-99.99,,2013-04-13 09:36:00,
2013-04-13 04:49:00,35.0,30.0,-100.00,WNW,295,18.0,21.0,82,-99.99,,,-99.99,,2013-04-13 09:49:00,
2013-04-13 04:55:00,35.0,28.0,-100.00,WNW,285,24.0,30.0,77,-99.99,,,-99.99,,2013-04-13 09:55:00,
2013-04-13 05:05:00,35.0,28.0,-100.00,WNW,285,24.0,30.0,77,-99.99,,,-99.99,,2013-04-13 10:05:00,
2013-04-13 05:15:00,35.0,28.0,-100.00,WNW,290,21.0,26.0,77,-99.99,,,-99.99,,2013-04-13 10:15:00,
2013-04-13 05:24:00,35.0,29.0,-100.00,WNW,285,23.0,29.0,78,-99.99,,,-99.99,,2013-04-13 10:24:00,
2013-04-13 05:36:00,35.0,29.0,-100.00,WNW,285,23.0,29.0,78,-99.99,,,-99.99,,2013-04-13 10:36:00,
2013-04-13 05:46:00,35.0,28.0,-100.00,WNW,285,22.0,29.0,77,-99.99,,,-99.99,,2013-04-13 10:46:00,
2013-04-13 05:55:00,35.0,28.0,-100.00,WNW,285,19.0,28.0,77,-99.99,,,-99.99,,2013-04-13 10:55:00,
2013-04-13 06:06:00,35.0,28.0,-100.00,WNW,285,19.0,28.0,77,-99.99,,,-99.99,,2013-04-13 11:06:00,
2013-04-13 06:13:00,35.0,29.0,-100.00,WNW,285,19.0,24.0,78,-99.99,,,-99.99,,2013-04-13 11:13:00,
2013-04-13 06:24:00,34.0,28.0,-100.00,WNW,290,19.0,26.0,79,-99.99,,,-99.99,,2013-04-13 11:24:00,
2013-04-13 06:34:00,34.0,28.0,-100.00,WNW,290,19.0,26.0,79,-99.99,,,-99.99,,2013-04-13 11:34:00,
2013-04-13 06:44:00,34.0,26.0,-100.00,WNW,285,21.0,26.0,72,-99.99,,,-99.99,,2013-04-13 11:44:00,
2013-04-13 06:54:00,34.0,26.0,-100.00,WNW,285,21.0,32.0,71,-99.99,,,-99.99,,2013-04-13 11:54:00,
2013-04-13 07:08:00,34.0,26.0,-100.00,WNW,285,21.0,32.0,71,-99.99,,,-99.99,,2013-04-13 12:08:00,
2013-04-13 07:15:00,34.0,25.0,-100.00,WNW,285,17.0,34.0,69,-99.99,,,-99.99,,2013-04-13 12:15:00,
2013-04-13 07:25:00,34.0,25.0,-100.00,West,280,19.0,24.0,71,-99.99,,,-99.99,,2013-04-13 12:25:00,
2013-04-13 07:35:00,34.0,25.0,-100.00,West,280,19.0,24.0,71,-99.99,,,-99.99,,2013-04-13 12:35:00,
2013-04-13 07:47:00,34.0,26.0,-100.00,West,280,18.0,25.0,72,-99.99,,,-99.99,,2013-04-13 12:47:00,
2013-04-13 07:55:00,34.0,26.0,-100.00,West,280,19.0,23.0,73,-99.99,,,-99.99,,2013-04-13 12:55:00,
2013-04-13 08:05:00,34.0,26.0,-100.00,West,280,19.0,23.0,73,-99.99,,,-99.99,,2013-04-13 13:05:00,
2013-04-13 08:15:00,34.0,27.0,-100.00,WNW,285,18.0,26.0,74,-99.99,,,-99.99,,2013-04-13 13:15:00,
2013-04-13 08:27:00,35.0,27.0,-100.00,WNW,285,22.0,26.0,72,-99.99,,,-99.99,,2013-04-13 13:27:00,
2013-04-13 08:34:00,35.0,27.0,-100.00,WNW,285,22.0,26.0,72,-99.99,,,-99.99,,2013-04-13 13:34:00,
2013-04-13 08:47:00,35.0,26.0,-100.00,WNW,285,21.0,26.0,70,-99.99,,,-99.99,,2013-04-13 13:47:00,
2013-04-13 09:04:00,35.0,25.0,-100.00,WNW,285,23.0,32.0,67,-99.99,,,-99.99,,2013-04-13 14:04:00,
2013-04-13 09:14:00,36.0,25.0,-100.00,West,280,24.0,34.0,63,-99.99,,,-99.99,,2013-04-13 14:14:00,
2013-04-13 09:23:00,37.0,25.0,-100.00,WNW,295,23.0,28.0,62,-99.99,,,-99.99,,2013-04-13 14:23:00,
2013-04-13 09:37:00,37.0,25.0,-100.00,WNW,295,23.0,28.0,62,-99.99,,,-99.99,,2013-04-13 14:37:00,
2013-04-13 09:46:00,37.0,24.0,-100.00,WNW,285,26.0,37.0,60,-99.99,,,-99.99,,2013-04-13 14:46:00,
2013-04-13 09:59:00,37.0,24.0,-100.00,WNW,295,27.0,41.0,58,-99.99,,,-99.99,,2013-04-13 14:59:00,
2013-04-13 10:05:00,37.0,24.0,-100.00,WNW,295,27.0,41.0,58,-99.99,,,-99.99,,2013-04-13 15:05:00,
2013-04-13 10:14:00,37.0,24.0,-100.00,WNW,300,31.0,39.0,58,-99.99,,,-99.99,,2013-04-13 15:14:00,
2013-04-13 10:29:00,39.0,25.0,-100.00,WNW,290,21.0,32.0,58,-99.99,,,-99.99,,2013-04-13 15:29:00,
2013-04-13 10:35:00,39.0,25.0,-100.00,WNW,290,21.0,32.0,58,-99.99,,,-99.99,,2013-04-13 15:35:00,
2013-04-13 10:44:00,39.0,25.0,-100.00,NW,310,27.0,34.0,58,-99.99,,,-99.99,,2013-04-13 15:44:00,
2013-04-13 10:58:00,39.0,25.0,-100.00,West,280,25.0,35.0,58,-99.99,,,-99.99,,2013-04-13 15:58:00,
2013-04-13 11:06:00,39.0,25.0,-100.00,West,280,25.0,35.0,58,-99.99,,,-99.99,,2013-04-13 16:06:00,
2013-04-13 11:15:00,39.0,25.0,-100.00,WNW,295,24.0,34.0,58,-99.99,,,-99.99,,2013-04-13 16:15:00,
2013-04-13 11:24:00,39.0,26.0,-100.00,WNW,285,24.0,32.0,58,-99.99,,,-99.99,,2013-04-13 16:24:00,
2013-04-13 11:35:00,39.0,26.0,-100.00,WNW,285,24.0,32.0,58,-99.99,,,-99.99,,2013-04-13 16:35:00,
2013-04-13 11:45:00,40.0,27.0,-100.00,WNW,290,23.0,35.0,59,-99.99,,,-99.99,,2013-04-13 16:45:00,
2013-04-13 11:56:00,41.0,27.0,-100.00,WNW,285,19.0,33.0,58,-99.99,,,-99.99,,2013-04-13 16:56:00,
2013-04-13 12:07:00,41.0,27.0,-100.00,WNW,285,19.0,33.0,58,-99.99,,,-99.99,,2013-04-13 17:07:00,
2013-04-13 12:20:00,42.0,28.0,-100.00,West,280,26.0,34.0,57,-99.99,,,-99.99,,2013-04-13 17:20:00,
2013-04-13 12:44:00,42.0,27.0,-100.00,NW,305,23.0,40.0,55,-99.99,,,-99.99,,2013-04-13 17:44:00,
2013-04-13 13:04:00,43.0,28.0,-100.00,WNW,295,19.0,33.0,55,-99.99,,,-99.99,,2013-04-13 18:04:00,
2013-04-13 13:15:00,43.0,28.0,-100.00,WNW,300,26.0,33.0,55,-99.99,,,-99.99,,2013-04-13 18:15:00,
2013-04-13 13:24:00,44.0,28.0,-100.00,West,275,19.0,33.0,54,-99.99,,,-99.99,,2013-04-13 18:24:00,
2013-04-13 13:33:00,44.0,28.0,-100.00,West,275,19.0,33.0,54,-99.99,,,-99.99,,2013-04-13 18:33:00,
2013-04-13 13:42:00,45.0,29.0,-100.00,WNW,285,21.0,29.0,54,-99.99,,,-99.99,,2013-04-13 18:42:00,
2013-04-13 13:53:00,45.0,29.0,-100.00,WNW,285,21.0,32.0,53,-99.99,,,-99.99,,2013-04-13 18:53:00,
2013-04-13 14:03:00,45.0,29.0,-100.00,WNW,285,21.0,32.0,53,-99.99,,,-99.99,,2013-04-13 19:03:00,
2013-04-13 14:12:00,45.0,29.0,-100.00,WNW,295,18.0,32.0,52,-99.99,,,-99.99,,2013-04-13 19:12:00,
2013-04-13 14:22:00,47.0,30.0,-100.00,West,275,23.0,27.0,52,-99.99,,,-99.99,,2013-04-13 19:22:00,
2013-04-13 14:32:00,47.0,30.0,-100.00,West,275,23.0,27.0,52,-99.99,,,-99.99,,2013-04-13 19:32:00,
2013-04-13 14:42:00,46.0,29.0,-100.00,WNW,285,20.0,32.0,50,-99.99,,,-99.99,,2013-04-13 19:42:00,
2013-04-13 14:53:00,48.0,30.0,-100.00,West,275,24.0,32.0,50,-99.99,,,-99.99,,2013-04-13 19:53:00,
2013-04-13 15:02:00,48.0,30.0,-100.00,West,275,24.0,32.0,50,-99.99,,,-99.99,,2013-04-13 20:02:00,
2013-04-13 15:12:00,48.0,29.0,-100.00,WNW,290,18.0,32.0,48,-99.99,,,-99.99,,2013-04-13 20:12:00,
2013-04-13 15:22:00,47.0,29.0,-100.00,WNW,295,18.0,26.0,49,-99.99,,,-99.99,,2013-04-13 20:22:00,
2013-04-13 15:32:00,47.0,29.0,-100.00,WNW,295,18.0,26.0,49,-99.99,,,-99.99,,2013-04-13 20:32:00,
2013-04-13 15:42:00,49.0,30.0,-100.00,WNW,285,13.0,28.0,48,-99.99,,,-99.99,,2013-04-13 20:42:00,
2013-04-13 15:52:00,49.0,30.0,-100.00,WNW,290,21.0,26.0,48,-99.99,,,-99.99,,2013-04-13 20:52:00,
2013-04-13 16:02:00,49.0,30.0,-100.00,WNW,290,21.0,26.0,48,-99.99,,,-99.99,,2013-04-13 21:02:00,
2013-04-13 16:12:00,49.0,30.0,-100.00,West,280,17.0,29.0,47,-99.99,,,-99.99,,2013-04-13 21:12:00,
2013-04-13 16:22:00,50.0,30.0,-100.00,West,280,18.0,29.0,47,-99.99,,,-99.99,,2013-04-13 21:22:00,
2013-04-13 16:33:00,50.0,30.0,-100.00,West,280,18.0,29.0,47,-99.99,,,-99.99,,2013-04-13 21:33:00,
2013-04-13 16:43:00,50.0,30.0,-100.00,West,270,20.0,25.0,46,-99.99,,,-99.99,,2013-04-13 21:43:00,
2013-04-13 16:53:00,51.0,31.0,-100.00,West,275,20.0,24.0,46,-99.99,,,-99.99,,2013-04-13 21:53:00,
2013-04-13 17:03:00,51.0,31.0,-100.00,West,275,20.0,24.0,46,-99.99,,,-99.99,,2013-04-13 22:03:00,
2013-04-13 17:12:00,50.0,30.0,-100.00,WNW,290,18.0,24.0,47,-99.99,,,-99.99,,2013-04-13 22:12:00,
2013-04-13 17:22:00,51.0,30.0,-100.00,West,265,19.0,26.0,45,-99.99,,,-99.99,,2013-04-13 22:22:00,
2013-04-13 17:33:00,51.0,30.0,-100.00,West,265,19.0,26.0,45,-99.99,,,-99.99,,2013-04-13 22:33:00,
2013-04-13 17:42:00,50.0,30.0,-100.00,West,280,15.0,21.0,46,-99.99,,,-99.99,,2013-04-13 22:42:00,
2013-04-13 17:53:00,51.0,30.0,-100.00,West,265,14.0,19.0,45,-99.99,,,-99.99,,2013-04-13 22:53:00,
2013-04-13 18:02:00,51.0,30.0,-100.00,West,265,14.0,19.0,45,-99.99,,,-99.99,,2013-04-13 23:02:00,
2013-04-13 18:12:00,50.0,30.0,-100.00,WNW,290,14.0,21.0,46,-99.99,,,-99.99,,2013-04-13 23:12:00,
2013-04-13 18:22:00,50.0,30.0,-100.00,WNW,290,13.0,17.0,46,-99.99,,,-99.99,,2013-04-13 23:22:00,
2013-04-13 18:32:00,50.0,30.0,-100.00,WNW,290,13.0,17.0,46,-99.99,,,-99.99,,2013-04-13 23:32:00,
2013-04-13 18:42:00,50.0,30.0,-100.00,WSW,250,7.0,17.0,47,-99.99,,,-99.99,,2013-04-13 23:42:00,
2013-04-13 18:53:00,49.0,31.0,-100.00,SW,230,9.0,14.0,48,-99.99,,,-99.99,,2013-04-13 23:53:00,
2013-04-13 19:02:00,49.0,31.0,-100.00,SW,230,9.0,14.0,48,-99.99,,,-99.99,,2013-04-14 00:02:00,
2013-04-13 19:12:00,50.0,30.0,-100.00,West,280,8.0,9.0,47,-99.99,,,-99.99,,2013-04-14 00:12:00,
2013-04-13 19:22:00,49.0,30.0,-100.00,WSW,255,5.0,11.0,48,-99.99,,,-99.99,,2013-04-14 00:22:00,
2013-04-13 19:32:00,49.0,30.0,-100.00,WSW,255,5.0,11.0,48,-99.99,,,-99.99,,2013-04-14 00:32:00,
2013-04-13 19:42:00,49.0,30.0,-100.00,WSW,255,5.0,11.0,48,-99.99,,,-99.99,,2013-04-14 00:42:00,
2013-04-13 19:52:00,49.0,30.0,-100.00,WSW,245,4.0,9.0,49,-99.99,,,-99.99,,2013-04-14 00:52:00,
2013-04-13 20:02:00,49.0,30.0,-100.00,WSW,245,4.0,9.0,49,-99.99,,,-99.99,,2013-04-14 01:02:00,
2013-04-13 20:12:00,49.0,31.0,-100.00,WSW,250,4.0,6.0,50,-99.99,,,-99.99,,2013-04-14 01:12:00,
2013-04-13 20:22:00,48.0,31.0,-100.00,SW,230,4.0,6.0,51,-99.99,,,-99.99,,2013-04-14 01:22:00,
2013-04-13 20:32:00,48.0,31.0,-100.00,SW,230,4.0,6.0,51,-99.99,,,-99.99,,2013-04-14 01:32:00,
2013-04-13 20:42:00,48.0,32.0,-100.00,SSW,210,5.0,6.0,53,-99.99,,,-99.99,,2013-04-14 01:42:00,
2013-04-13 20:53:00,48.0,32.0,-100.00,SSE,160,4.0,6.0,53,-99.99,,,-99.99,,2013-04-14 01:53:00,
2013-04-13 21:02:00,48.0,32.0,-100.00,SSE,160,4.0,6.0,53,-99.99,,,-99.99,,2013-04-14 02:02:00,
2013-04-13 21:12:00,48.0,32.0,-100.00,SSE,165,4.0,5.0,55,-99.99,,,-99.99,,2013-04-14 02:12:00,
2013-04-13 21:22:00,48.0,32.0,-100.00,South,180,6.0,7.0,55,-99.99,,,-99.99,,2013-04-14 02:22:00,
2013-04-13 21:32:00,48.0,32.0,-100.00,South,180,6.0,7.0,55,-99.99,,,-99.99,,2013-04-14 02:32:00,
2013-04-13 21:42:00,48.0,32.0,-100.00,SSE,160,4.0,6.0,55,-99.99,,,-99.99,,2013-04-14 02:42:00,
2013-04-13 21:53:00,48.0,33.0,-100.00,South,180,3.0,6.0,57,-99.99,,,-99.99,,2013-04-14 02:53:00,
2013-04-13 22:02:00,48.0,33.0,-100.00,South,180,3.0,6.0,57,-99.99,,,-99.99,,2013-04-14 03:02:00,
2013-04-13 22:12:00,48.0,34.0,-100.00,SSE,165,4.0,7.0,58,-99.99,,,-99.99,,2013-04-14 03:12:00,
2013-04-13 22:22:00,47.0,34.0,-100.00,South,170,5.0,6.0,59,-99.99,,,-99.99,,2013-04-14 03:22:00,
2013-04-13 22:33:00,47.0,34.0,-100.00,South,170,5.0,6.0,59,-99.99,,,-99.99,,2013-04-14 03:33:00,
2013-04-13 22:42:00,46.0,34.0,-100.00,SSE,150,4.0,5.0,62,-99.99,,,-99.99,,2013-04-14 03:42:00,
2013-04-13 22:53:00,45.0,34.0,-100.00,SE,135,4.0,5.0,65,-99.99,,,-99.99,,2013-04-14 03:53:00,
2013-04-13 23:02:00,45.0,34.0,-100.00,SE,135,4.0,5.0,65,-99.99,,,-99.99,,2013-04-14 04:02:00,
2013-04-13 23:12:00,45.0,35.0,-100.00,ESE,120,6.0,6.0,70,-99.99,,,-99.99,,2013-04-14 04:12:00,
2013-04-13 23:23:00,45.0,37.0,-100.00,ESE,115,6.0,6.0,74,-99.99,,,-99.99,,2013-04-14 04:23:00,
2013-04-13 23:33:00,45.0,37.0,-100.00,ESE,115,6.0,6.0,74,-99.99,,,-99.99,,2013-04-14 04:33:00,
2013-04-13 23:43:00,45.0,38.0,-100.00,East,95,6.0,6.0,76,-99.99,,,-99.99,,2013-04-14 04:43:00,
2013-04-13 23:52:00,45.0,38.0,-100.00,East,100,7.0,7.0,77,-99.99,,,-99.99,,2013-04-14 04:52:00,